Location: Sternwarte ZA, Rosenfeld-Brittheim
(48.2889°N, 8.6789°E)
Time: 03:33:28
(UTC+02:00)

ISS - Pass Details

Date: 24 May 2018
Orbit: 402 x 407 km, 51.6° (Epoch: 23 May)

Event Time Altitude Azimuth Distance (km) Brightness Sun altitude
Rises 01:19:40 0° 287° (WNW) 2,321 0.2 -21.0°
Reaches altitude 10° 01:21:47 10° 292° (WNW) 1,460 -0.8 -21.0°
Maximum altitude 01:24:59 50° 10° (N) 523 -3.0 -21.0°
Enters shadow 01:27:56 12° 86° (E) 1,364 -1.1 -21.0°
